1485252000.43,1584,10.5,73370.8,2.19,-42.69,-43.35,0,*47
1485252001.63,1585,10.5,73374.3,2.19,-42.51,-43.15,0,*4F
1485252002.85,1586,10.5,73374.0,2.19,-42.69,-43.41,0,*46
1485252004.05,1587,10.5,73368.8,2.19,-41.99,-42.75,0,*4D
1485252005.27,1588,10.5,73374.3,2.19,-42.13,-42.57,0,*43
1485252006.52,1589,10.5,73368.8,2.19,-42.69,-43.55,0,*4C
1485252007.79,1590,10.5,73370.0,2.17,-42.45,-43.09,0,*4D
1485252009.07,1591,10.5,73370.8,2.17,-42.45,-43.09,0,*4C
1485252010.27,1592,10.5,73372.0,2.15,-41.87,-42.63,0,*4D
1485252011.47,1593,10.5,73372.5,2.15,-42.75,-43.41,0,*43
1485252012.71,1594,10.5,73370.3,2.15,-41.55,-42.05,0,*44
1485252013.96,1595,10.5,73368.5,2.17,-41.87,-42.57,0,*4F
1485252015.17,1596,10.5,73370.5,2.15,-41.81,-42.37,0,*4E
1485252016.42,1597,10.5,73368.3,2.17,-40.85,-41.61,0,*48
1485252017.66,1598,10.5,73370.0,2.15,-41.81,-42.45,0,*45
1485252018.9,1599,10.5,73372.8,2.15,-42.05,-42.57,0,*48
1485252020.12,1600,10.5,73370.8,2.15,-41.87,-42.57,0,*42
1485252021.33,1601,10.5,73374.8,2.15,-41.73,-42.45,0,*4B
1485252022.58,1602,10.5,73370.8,2.17,-41.87,-42.45,0,*41
1485252023.85,1603,10.5,73370.3,2.17,-41.23,-42.05,0,*4A
1485252025.12,1604,10.5,73372.3,2.13,-42.05,-42.83,0,*40
1485252026.34,1605,10.5,73368.3,2.11,-42.25,-42.69,0,*45
1485252027.59,1606,10.5,73372.0,2.13,-42.31,-42.89,0,*4F
1485252028.79,1607,10.5,73370.8,2.11,-42.89,-43.49,0,*42
1485252030.03,1608,10.5,73372.5,2.11,-41.81,-42.45,0,*4B
1485252031.28,1609,10.56,73374.8,2.13,-41.67,-42.25,0,*46
1485252032.51,1610,10.5,73370.0,2.13,-42.25,-42.89,0,*4D
1485252033.73,1611,10.5,73372.3,2.11,-42.13,-42.69,0,*45
1485252034.96,1612,10.5,73372.8,2.11,-41.23,-41.87,0,*45
1485252036.21,1613,10.5,73374.3,2.11,-41.93,-42.83,0,*48
1485252037.45,1614,10.5,73370.0,2.07,-41.93,-42.57,0,*41
1485252038.7,1615,10.5,73370.3,2.11,-41.23,-41.81,0,*44
1485252039.92,1616,10.5,73372.3,2.11,-42.05,-42.63,0,*4F
1485252041.15,1617,10.5,73368.0,2.05,-41.99,-42.75,0,*4A
1485252042.37,1618,10.5,73370.5,2.05,-42.37,-43.01,0,*40
1485252043.64,1619,10.5,73370.0,2.05,-42.19,-42.83,0,*46
1485252044.84,1620,10.5,73374.5,2.07,-41.73,-42.51,0,*4E
1485252046.09,1621,10.5,73372.8,2.05,-42.37,-42.95,0,*46
1485252047.36,1622,10.5,73368.3,2.05,-41.23,-42.05,0,*4A
1485252048.6,1623,10.5,73374.0,2.07,-41.93,-42.69,0,*48
1485252049.83,1624,10.5,73368.3,2.05,-41.99,-42.75,0,*4A
1485252051.07,1625,10.5,73370.3,2.05,-41.99,-42.45,0,*48
1485252052.31,1626,10.5,73372.3,2.07,-40.79,-41.35,0,*42
1485252053.56,1627,10.5,73374.3,2.07,-40.97,-41.67,0,*44
1485252054.83,1628,10.5,73370.0,2.05,-42.05,-42.95,0,*4E
1485252056.09,1629,10.5,73372.0,2.05,-43.01,-43.67,0,*46
1485252057.34,1630,10.5,73374.3,2.03,-42.19,-42.83,0,*4B
1485252058.61,1631,10.5,73370.0,2.01,-42.05,-42.83,0,*45
1485252059.85,1632,10.5,73372.0,2.03,-42.45,-43.21,0,*49
1485252061.1,1633,10.5,73372.8,2.01,-43.09,-43.87,0,*4F
1485252062.37,1634,10.5,73372.3,2.01,-42.83,-43.55,0,*44
1485252063.59,1635,10.5,73372.5,1.99,-42.51,-43.09,0,*41
1485252064.81,1636,10.5,73370.3,1.99,-41.49,-42.05,0,*45
1485252066.03,1637,10.5,73372.5,1.99,-41.81,-42.51,0,*41
1485252067.25,1638,10.5,73370.8,1.99,-41.49,-42.31,0,*4C
1485252068.44,1639,10.5,73368.5,1.99,-41.29,-42.13,0,*4B
1485252069.66,1640,10.5,73372.0,1.99,-41.87,-42.69,0,*4C
1485252070.88,1641,10.5,73374.8,1.99,-41.23,-41.87,0,*40
1485252072.08,1642,10.5,73370.0,1.99,-41.49,-42.25,0,*44
1485252073.32,1643,10.5,73370.3,1.97,-41.67,-42.13,0,*42
1485252074.59,1644,10.5,73368.3,1.97,-42.95,-43.55,0,*48
1485252075.78,1645,10.5,73368.3,1.99,-41.29,-41.87,0,*4E
1485252077.05,1646,10.5,73374.3,1.97,-40.97,-41.55,0,*48
1485252078.29,1647,10.5,73368.8,1.97,-41.11,-41.93,0,*4C
1485252079.53,1648,10.5,73374.0,1.97,-41.55,-42.13,0,*48
1485252080.72,1649,10.5,73368.8,1.99,-41.87,-42.51,0,*4E
1485252081.94,1650,10.5,73374.8,1.97,-41.73,-42.51,0,*43
1485252083.14,1651,10.5,73374.8,1.99,-41.61,-42.25,0,*4C
1485252084.35,1652,10.5,73370.0,1.97,-40.53,-41.29,0,*4E
1485252085.58,1653,10.5,73370.5,1.99,-41.03,-41.67,0,*4F
1485252086.8,1654,10.5,73374.3,1.99,-40.59,-41.29,0,*4C
1485252088.01,1655,10.5,73372.8,1.99,-40.21,-40.73,0,*4C
1485252089.25,1656,10.5,73368.3,1.99,-39.53,-40.09,0,*49
1485252090.51,1657,10.5,73368.0,1.99,-40.09,-40.59,0,*4C
1485252091.76,1658,10.5,73370.8,2.01,-40.29,-41.03,0,*4D
1485252092.98,1659,10.5,73368.0,2.01,-40.47,-41.03,0,*44
1485252094.23,1660,10.5,73370.0,2.03,-40.21,-40.85,0,*43
1485252095.48,1661,10.5,73372.5,2.03,-39.41,-39.79,0,*47
1485252096.75,1662,10.5,73372.3,2.05,-38.79,-39.23,0,*47
1485252098.02,1663,10.5,73370.3,2.05,-39.15,-39.53,0,*4A
1485252099.26,1664,10.5,73370.5,2.07,-38.79,-39.29,0,*49
1485252100.46,1665,10.5,73370.8,2.11,-38.55,-39.09,0,*43
1485252101.68,1666,10.5,73372.3,2.13,-38.73,-39.09,0,*46
1485252102.93,1667,10.5,73370.5,2.15,-38.79,-39.15,0,*46
1485252104.2,1668,10.5,73372.3,2.17,-39.03,-39.41,0,*46
1485252105.47,1669,10.5,73372.8,2.17,-38.79,-39.15,0,*4A
1485252106.75,1670,10.5,73368.0,2.17,-38.79,-39.15,0,*42
1485252107.99,1671,10.5,73368.5,2.19,-38.91,-39.23,0,*4E
1485252109.26,1672,10.5,73370.8,2.21,-39.03,-39.53,0,*4B
1485252110.53,1673,10.5,73372.0,2.21,-38.91,-39.29,0,*4D
1485252111.75,1674,10.5,73370.0,2.21,-38.73,-39.09,0,*44
1485252112.94,1675,10.5,73374.3,2.23,-40.03,-40.65,0,*4B
1485252114.2,1676,10.5,73372.8,2.23,-39.71,-40.09,0,*49
1485252115.44,1677,10.5,73370.0,2.25,-38.85,-39.23,0,*42
1485252116.67,1678,10.5,73370.0,2.27,-38.29,-38.85,0,*44
1485252117.89,1679,10.5,73368.0,2.27,-38.11,-38.61,0,*44
1485252119.16,1680,10.5,73372.5,2.29,-38.23,-38.79,0,*44
1485252120.41,1681,10.5,73370.8,2.33,-38.61,-39.15,0,*43
1485252121.63,1682,10.5,73370.5,2.35,-38.85,-39.29,0,*43
1485252122.84,1683,10.5,73372.8,2.33,-38.43,-38.73,0,*40
1485252124.03,1684,10.5,73370.8,2.35,-38.85,-39.35,0,*48
1485252125.24,1685,10.5,73370.0,2.35,-38.91,-39.47,0,*49
1485252126.44,1686,10.5,73374.8,2.37,-38.85,-39.47,0,*4D
1485252127.67,1687,10.5,73370.3,2.39,-38.61,-39.09,0,*42
1485252128.89,1688,10.5,73368.3,2.37,-38.85,-39.41,0,*45
1485252130.11,1689,10.5,73368.5,2.39,-38.61,-39.09,0,*4C
1485252131.37,1690,10.5,73372.8,2.41,-39.71,-40.41,0,*49
1485252132.62,1691,10.5,73370.3,2.41,-38.79,-39.15,0,*4E
1485252133.85,1692,10.5,73370.0,2.41,-38.61,-39.03,0,*43
1485252135.12,1693,10.5,73368.5,2.43,-38.79,-39.41,0,*4F
1485252136.37,1694,10.5,73370.5,2.43,-38.55,-39.03,0,*40
1485252137.62,1695,10.5,73370.3,2.45,-38.49,-38.79,0,*46
1485252138.81,1696,10.5,73372.8,2.45,-38.35,-38.73,0,*44
1485252140.07,1697,10.5,73372.8,2.47,-39.29,-39.71,0,*48
1485252141.31,1698,10.5,73372.8,2.47,-38.79,-39.35,0,*43
1485252142.53,1699,10.5,73370.5,2.49,-38.67,-39.09,0,*4C
1485252143.75,1700,10.5,73372.5,2.49,-38.61,-39.03,0,*41
1485252144.99,1701,10.5,73370.5,2.49,-39.03,-39.41,0,*43
1485252146.24,1702,10.5,73370.8,2.51,-38.29,-38.73,0,*40
1485252147.45,1703,10.5,73372.3,2.51,-38.43,-38.73,0,*4D
1485252148.72,1704,10.5,73368.5,2.51,-39.29,-39.79,0,*4C
1485252149.96,1705,10.5,73370.0,2.51,-38.67,-39.09,0,*41
1485252151.16,1706,10.5,73370.8,2.53,-38.43,-38.85,0,*43
1485252152.34,1707,10.5,73368.5,2.57,-38.35,-38.73,0,*4E
1485252153.59,1708,10.5,73374.5,2.59,-38.61,-39.15,0,*4F
1485252154.81,1709,10.5,73374.3,2.59,-39.09,-39.47,0,*46
1485252156.02,1710,10.5,73370.0,2.61,-39.03,-39.47,0,*4F
1485252157.27,1711,10.5,73372.3,2.61,-39.79,-40.21,0,*4D
1485252158.5,1712,10.5,73374.8,2.59,-38.91,-39.35,0,*49
1485252159.72,1713,10.5,73372.3,2.61,-38.85,-39.41,0,*45
1485252160.93,1714,10.5,73366.5,2.61,-38.73,-39.29,0,*45
1485252162.15,1715,10.5,73370.8,2.61,-38.85,-39.23,0,*47
1485252163.37,1716,10.5,73368.3,2.61,-38.67,-39.09,0,*40
1485252164.61,1717,10.5,73368.5,2.63,-38.43,-38.67,0,*4C
1485252165.85,1718,10.5,73370.5,2.63,-38.67,-39.09,0,*4C
1485252167.07,1719,10.5,73370.0,2.65,-38.61,-39.15,0,*40
1485252168.28,1720,10.5,73368.5,2.63,-38.43,-38.73,0,*4D
1485252169.47,1721,10.5,73370.0,2.65,-38.43,-38.97,0,*40
1485252170.67,1722,10.5,73370.5,2.65,-38.35,-38.85,0,*41
1485252171.91,1723,10.5,73368.3,2.67,-38.11,-38.55,0,*49
1485252173.19,1724,10.5,73368.3,2.69,-37.93,-38.29,0,*4E
1485252174.41,1725,10.5,73370.5,2.71,-37.93,-38.35,0,*4B
1485252175.63,1726,10.5,73370.5,2.71,-38.73,-39.29,0,*45
1485252176.87,1727,10.5,73370.3,2.71,-38.67,-39.03,0,*49
1485252178.12,1728,10.5,73370.0,2.73,-38.29,-38.73,0,*48
1485252179.34,1729,10.5,73374.0,2.75,-37.99,-38.43,0,*48
1485252180.58,1730,10.5,73370.0,2.75,-37.87,-38.29,0,*43
1485252181.8,1731,10.5,73370.8,2.75,-38.05,-38.67,0,*4D
1485252183.03,1732,10.5,73368.8,2.79,-38.11,-38.55,0,*46
1485252184.25,1733,10.5,73370.3,2.79,-38.35,-38.79,0,*4F
1485252185.5,1734,10.5,73368.3,2.81,-38.43,-38.91,0,*48
1485252186.74,1735,10.5,73370.8,2.81,-38.23,-38.73,0,*43
1485252187.96,1736,10.5,73370.5,2.83,-38.11,-38.61,0,*40
1485252189.18,1737,10.5,73370.8,2.83,-38.55,-38.91,0,*4E
1485252190.4,1738,10.5,73368.8,2.83,-38.17,-38.67,0,*4E
1485252191.61,1739,10.5,73370.3,2.83,-37.87,-38.35,0,*4E
1485252192.83,1740,10.5,73368.0,2.83,-38.29,-38.85,0,*40
1485252194.06,1741,10.5,73364.0,2.87,-38.49,-38.85,0,*43
1485252195.3,1742,10.5,73368.8,2.87,-38.23,-38.67,0,*40
1485252196.56,1743,10.5,73372.3,2.85,-38.49,-38.85,0,*43
1485252197.78,1744,10.5,73370.0,2.87,-37.99,-38.43,0,*4E
1485252199.02,1745,10.5,73372.0,2.87,-38.23,-38.67,0,*47
1485252200.3,1746,10.5,73368.3,2.89,-38.49,-38.79,0,*49
1485252201.49,1747,10.5,73372.5,2.91,-38.35,-38.73,0,*40
1485252202.69,1748,10.5,73368.5,2.91,-38.61,-38.97,0,*44
1485252203.91,1749,10.5,73370.8,2.91,-38.55,-38.91,0,*44
1485252205.15,1750,10.5,73374.0,2.93,-37.99,-38.35,0,*4F
1485252206.35,1751,10.5,73368.3,2.95,-37.87,-38.17,0,*47
1485252207.57,1752,10.5,73368.3,2.95,-38.29,-38.55,0,*49
1485252208.77,1753,10.5,73368.5,2.95,-38.17,-38.55,0,*45
1485252210.03,1754,10.5,73372.5,2.97,-37.87,-38.29,0,*4D
1485252211.31,1755,10.5,73374.3,2.97,-37.81,-38.29,0,*4A
1485252212.54,1756,10.5,73370.5,3.01,-37.81,-38.43,0,*4B
1485252213.77,1757,10.5,73368.8,3.05,-37.81,-38.17,0,*4F
1485252214.99,1758,10.5,73370.0,3.05,-37.69,-38.17,0,*46
1485252216.18,1759,10.5,73370.0,3.05,-38.35,-38.73,0,*43
1485252217.43,1760,10.5,73374.8,3.07,-37.99,-38.55,0,*46
1485252218.7,1761,10.5,73370.5,3.07,-37.93,-38.49,0,*40
1485252219.98,1762,10.5,73370.3,3.07,-37.99,-38.49,0,*49
1485252221.17,1763,10.5,73370.3,3.09,-38.43,-38.85,0,*4E
1485252222.41,1764,10.5,73370.0,3.09,-38.11,-38.49,0,*4E
1485252223.68,1765,10.5,73370.0,3.11,-37.93,-38.29,0,*45
1485252224.95,1766,10.5,73370.8,3.11,-38.29,-38.67,0,*42
1485252226.2,1767,10.5,73368.8,3.09,-37.93,-38.23,0,*44
1485252227.47,1768,10.5,73370.8,3.15,-37.99,-38.23,0,*4C
1485252228.74,1769,10.5,73372.0,3.15,-37.81,-38.23,0,*44
1485252229.99,1770,10.5,73368.3,3.15,-37.81,-38.17,0,*4B
1485252231.21,1771,10.5,73368.8,3.13,-37.57,-37.99,0,*4E
1485252232.48,1772,10.5,73370.5,3.15,-37.39,-37.81,0,*4A
1485252233.7,1773,10.5,73370.5,3.17,-37.99,-38.35,0,*43
1485252234.94,1774,10.5,73368.3,3.17,-37.63,-38.11,0,*47
1485252236.19,1775,10.5,73368.0,3.19,-37.75,-38.23,0,*4E
1485252237.43,1776,10.5,73370.3,3.19,-38.05,-38.49,0,*49
1485252238.68,1777,10.5,73368.0,3.19,-37.87,-38.23,0,*41
1485252239.88,1778,10.5,73370.3,3.21,-38.05,-38.43,0,*46
1485252241.1,1779,10.5,73372.0,3.25,-37.87,-38.23,0,*40
1485252242.33,1780,10.5,73368.8,3.25,-37.87,-38.23,0,*46
1485252243.57,1781,10.5,73372.3,3.25,-37.63,-37.99,0,*43
1485252244.81,1782,10.5,73368.5,3.27,-37.45,-37.81,0,*4F
1485252246.03,1783,10.5,73368.3,3.29,-37.57,-37.93,0,*40
1485252247.31,1784,10.5,73370.8,3.27,-37.63,-37.99,0,*44
1485252248.54,1785,10.5,73368.5,3.31,-37.57,-37.93,0,*4F
1485252249.8,1786,10.5,73370.0,3.33,-37.87,-38.23,0,*47
1485252251.05,1787,10.5,73370.5,3.31,-37.75,-37.99,0,*47
1485252252.32,1788,10.5,73366.8,3.31,-37.93,-38.29,0,*44
1485252253.59,1789,10.5,73368.5,3.33,-37.69,-38.11,0,*49
1485252254.87,1790,10.5,73368.5,3.33,-38.11,-38.49,0,*4C
1485252256.11,1791,10.5,73372.3,3.33,-37.75,-38.11,0,*4D
1485252257.35,1792,10.5,73368.8,3.35,-37.87,-38.23,0,*44
1485252258.6,1793,10.5,73370.0,3.35,-37.69,-37.99,0,*4B
1485252259.85,1794,10.5,73368.5,3.37,-37.51,-37.87,0,*4A
1485252261.05,1795,10.5,73368.0,3.35,-38.05,-38.43,0,*40
1485252262.3,1796,10.5,73370.3,3.37,-37.81,-38.05,0,*40
1485252263.52,1797,10.5,73368.0,3.37,-38.05,-38.43,0,*40
1485252264.8,1798,10.5,73368.5,3.41,-37.63,-38.11,0,*46
1485252266.05,1799,10.5,73368.3,3.41,-37.45,-37.81,0,*45
1485252267.33,1800,10.5,73372.0,3.41,-37.63,-37.99,0,*47
1485252268.57,1801,10.5,73368.0,3.41,-37.75,-38.11,0,*4E
1485252269.8,1802,10.5,73368.3,3.43,-37.87,-38.23,0,*43
1485252271.07,1803,10.5,73372.5,3.45,-38.11,-38.67,0,*44
1485252272.29,1804,10.5,73370.3,3.45,-38.05,-38.35,0,*41
1485252273.54,1805,10.5,73366.5,3.45,-38.29,-38.73,0,*4C
1485252274.78,1806,10.5,73370.5,3.45,-38.29,-38.73,0,*4F
1485252276.06,1807,10.5,73368.0,3.49,-37.63,-37.99,0,*48
1485252277.34,1808,10.5,73366.3,3.49,-37.63,-37.99,0,*47
1485252278.56,1809,10.5,73366.0,3.51,-37.45,-37.81,0,*42
1485252279.76,1810,10.5,73368.3,3.51,-37.45,-37.75,0,*41
1485252281.01,1811,10.5,73370.8,3.51,-37.63,-37.99,0,*46
1485252282.27,1812,10.5,73368.3,3.51,-37.93,-38.23,0,*44
1485252283.52,1813,10.5,73372.3,3.53,-37.75,-37.99,0,*41
1485252284.77,1814,10.5,73368.3,3.53,-37.81,-38.17,0,*44
1485252286.03,1815,10.5,73370.3,3.53,-37.81,-38.17,0,*45
1485252287.23,1816,10.5,73368.8,3.55,-37.57,-37.87,0,*4D
1485252288.45,1817,10.5,73368.0,3.55,-38.55,-39.03,0,*43
1485252289.67,1818,10.5,73368.8,3.55,-38.55,-39.03,0,*4C
1485252290.91,1819,10.5,73368.5,3.55,-37.93,-38.11,0,*4A
1485252292.16,1820,10.5,73368.8,3.57,-37.75,-38.11,0,*4A
1485252293.41,1821,10.5,73368.3,3.57,-37.93,-38.35,0,*45
1485252294.63,1822,10.5,73370.3,3.59,-37.69,-38.05,0,*4E
1485252295.85,1823,10.5,73368.3,3.59,-38.43,-38.79,0,*43
1485252297.07,1824,10.5,73370.3,3.57,-38.35,-38.85,0,*48
1485252298.29,1825,10.5,73370.5,3.59,-37.99,-38.43,0,*44
1485252299.54,1826,10.5,73372.3,3.59,-37.81,-38.11,0,*49
1485252300.78,1827,10.5,73370.5,3.59,-38.11,-38.67,0,*4F
1485252301.98,1828,10.5,73368.3,3.63,-38.05,-38.35,0,*4B
1485252303.23,1829,10.5,73370.3,3.61,-37.93,-38.35,0,*48
1485252304.47,1830,10.5,73370.3,3.63,-37.63,-38.23,0,*4A
1485252305.66,1831,10.5,73368.0,3.63,-37.75,-38.05,0,*48
1485252306.85,1832,10.5,73370.0,3.63,-37.75,-38.05,0,*4B
1485252308.08,1833,10.5,73368.5,3.65,-37.99,-38.55,0,*4B
1485252309.31,1834,10.5,73370.8,3.65,-37.75,-38.29,0,*45
1485252310.5,1835,10.5,73372.3,3.65,-37.75,-38.17,0,*49
1485252311.76,1836,10.5,73370.5,3.67,-37.87,-38.29,0,*48
1485252313.01,1837,10.5,73368.5,3.71,-37.51,-37.87,0,*4E
1485252314.26,1838,10.5,73368.3,3.71,-37.93,-38.43,0,*48
1485252315.53,1839,10.5,73370.3,3.71,-37.69,-38.11,0,*4B
1485252316.73,1840,10.5,73370.5,3.73,-37.87,-38.43,0,*40
1485252317.95,1841,10.5,73368.0,3.73,-37.75,-38.23,0,*4A
1485252319.17,1842,10.5,73370.0,3.73,-37.63,-38.17,0,*49
1485252320.4,1843,10.5,73368.8,3.77,-37.99,-38.55,0,*4F
1485252321.65,1844,10.5,73368.3,3.75,-37.81,-38.35,0,*45
1485252322.9,1845,10.5,73366.3,3.77,-37.81,-38.29,0,*4B
1485252324.15,1846,10.5,73368.5,3.75,-37.81,-38.17,0,*47
1485252325.37,1847,10.5,73368.8,3.77,-37.99,-38.55,0,*4B
1485252326.63,1848,10.5,73370.0,3.77,-37.81,-38.29,0,*46
1485252327.85,1849,10.5,73368.0,3.77,-37.57,-37.99,0,*48
1485252329.09,1850,10.5,73370.3,3.79,-37.75,-38.29,0,*4A
1485252330.32,1851,10.5,73366.0,3.81,-37.81,-38.43,0,*4B
1485252331.57,1852,10.5,73368.0,3.79,-37.93,-38.35,0,*4D
1485252332.81,1853,10.5,73370.3,3.79,-38.11,-38.55,0,*4F
1485252334.03,1854,10.5,73368.8,3.81,-38.11,-38.61,0,*48
1485252335.25,1855,10.5,73372.0,3.81,-38.05,-38.49,0,*46
1485252336.5,1856,10.5,73370.0,3.81,-37.69,-38.23,0,*4C
1485252337.77,1857,10.5,73368.8,3.83,-37.63,-38.23,0,*45
1485252339.03,1858,10.5,73370.5,3.87,-37.39,-37.93,0,*45
1485252340.23,1859,10.5,73370.3,3.85,-37.87,-38.43,0,*41
1485252341.43,1860,10.5,73372.3,3.85,-38.05,-38.43,0,*4E
1485252342.7,1861,10.5,73368.3,3.83,-37.69,-38.23,0,*4A
1485252343.96,1862,10.5,73370.8,3.87,-37.93,-38.49,0,*44
1485252345.21,1863,10.5,73370.5,3.89,-37.99,-38.49,0,*41
1485252346.46,1864,10.5,73370.8,3.87,-37.99,-38.35,0,*43
1485252347.68,1865,10.5,73366.8,3.89,-38.11,-38.55,0,*45
1485252348.92,1866,10.5,73370.0,3.87,-37.93,-38.35,0,*4B
1485252350.15,1867,10.5,73368.8,3.89,-37.81,-38.35,0,*47
1485252351.37,1868,10.5,73370.8,3.89,-38.11,-38.55,0,*48
1485252352.62,1869,10.5,73368.8,3.89,-37.99,-38.49,0,*4B
1485252353.87,1870,10.5,73370.5,3.89,-38.29,-38.91,0,*42
1485252355.09,1871,10.5,73368.3,3.89,-38.49,-38.97,0,*43
1485252356.33,1872,10.5,73368.8,3.93,-37.69,-38.11,0,*48
1485252357.57,1873,10.5,73366.8,3.93,-38.79,-39.23,0,*47
1485252358.81,1874,10.5,73370.5,3.93,-38.29,-38.67,0,*44
1485252360.05,1875,10.5,73368.0,3.95,-37.63,-38.17,0,*45
1485252361.27,1876,10.5,73368.3,3.95,-38.05,-38.55,0,*4F
1485252362.48,1877,10.5,73370.3,3.95,-38.05,-38.43,0,*49
1485252363.7,1878,10.5,73368.8,3.95,-38.05,-38.43,0,*46
1485252364.92,1879,10.5,73368.3,3.95,-38.05,-38.43,0,*47
1485252366.16,1880,10.5,73366.3,3.95,-38.85,-39.41,0,*4A
1485252367.4,1881,10.5,73368.3,3.97,-38.35,-38.79,0,*48
1485252368.65,1882,10.5,73370.3,3.99,-38.11,-38.67,0,*4C
1485252369.87,1883,10.5,73368.3,3.97,-38.35,-38.73,0,*40
1485252371.09,1884,10.5,73368.3,3.97,-38.05,-38.43,0,*47
1485252372.31,1885,10.5,73370.3,3.97,-38.43,-38.85,0,*4E
1485252373.54,1886,10.5,73374.0,3.99,-37.93,-38.35,0,*4A
1485252374.79,1887,10.5,73368.8,3.99,-38.29,-38.91,0,*4B
1485252376.02,1888,10.5,73368.8,3.99,-38.17,-38.79,0,*4F
1485252377.26,1889,10.5,73374.0,3.97,-38.97,-39.41,0,*42
1485252378.45,1890,10.5,73368.8,3.99,-38.17,-38.73,0,*4C
1485252379.65,1891,10.5,73364.5,3.99,-38.55,-39.09,0,*47
1485252380.9,1892,10.5,73366.0,3.99,-38.11,-38.49,0,*41
1485252382.15,1893,10.5,73370.3,4.01,-38.11,-38.55,0,*4B
1485252383.37,1894,10.5,73366.8,4.01,-38.73,-39.09,0,*40
1485252384.59,1895,10.5,73366.3,4.01,-38.35,-38.97,0,*45
1485252385.81,1896,10.5,73370.8,4.01,-38.17,-38.55,0,*48
1485252387.03,1897,10.5,73370.3,4.03,-38.73,-39.23,0,*49
1485252388.26,1898,10.5,73364.8,4.03,-39.03,-39.41,0,*44
1485252389.51,1899,10.5,73368.8,4.01,-38.35,-38.91,0,*4F
1485252390.72,1900,10.5,73370.5,4.03,-38.73,-39.15,0,*43
1485252391.94,1901,10.5,73366.3,4.01,-39.09,-39.47,0,*4B
1485252393.16,1902,10.5,73370.5,4.01,-39.09,-39.47,0,*48
1485252394.41,1903,10.5,73368.3,4.01,-38.79,-39.35,0,*4A
1485252395.62,1904,10.5,73370.8,4.03,-38.43,-38.91,0,*49
1485252396.9,1905,10.5,73366.8,4.01,-38.79,-39.29,0,*41
1485252398.17,1906,10.5,73368.3,4.01,-38.67,-38.91,0,*4F
1485252399.41,1907,10.5,73366.3,4.01,-38.91,-39.35,0,*48
1485252400.65,1908,10.5,73370.0,4.03,-38.49,-38.91,0,*4F
1485252401.9,1909,10.5,73368.3,4.01,-38.55,-39.15,0,*4C
1485252403.12,1910,10.5,73368.5,4.03,-38.29,-38.73,0,*4C
1485252404.34,1911,10.5,73370.8,4.03,-37.93,-38.43,0,*40
1485252405.56,1912,10.5,73368.3,4.03,-38.05,-38.49,0,*49
1485252406.8,1913,10.5,73370.8,4.05,-38.17,-38.67,0,*41
1485252408.03,1914,10.5,73368.8,4.05,-37.87,-38.35,0,*47
1485252409.26,1915,10.5,73368.3,4.07,-37.99,-38.55,0,*4D
1485252410.49,1916,10.5,73370.0,4.07,-37.99,-38.55,0,*4E
1485252411.68,1917,10.5,73370.3,4.07,-38.05,-38.61,0,*42
1485252412.94,1918,10.5,73372.0,4.05,-37.87,-38.23,0,*4C
1485252414.14,1919,10.5,73370.5,4.07,-38.05,-38.55,0,*4B
1485252415.34,1920,10.5,73370.8,4.07,-37.87,-38.35,0,*42
1485252416.56,1921,10.5,73370.8,4.09,-37.75,-38.17,0,*40
1485252417.78,1922,10.5,73372.3,4.11,-37.57,-37.99,0,*43
1485252419.01,1923,10.5,73368.5,4.11,-37.63,-38.17,0,*4C
1485252420.26,1924,10.5,73370.5,4.11,-37.81,-38.29,0,*4A
1485252421.51,1925,10.5,73370.8,4.11,-37.93,-38.29,0,*48
1485252422.76,1926,10.5,73368.8,4.13,-38.05,-38.49,0,*4F
1485252423.98,1927,10.5,73368.3,4.17,-38.35,-38.85,0,*49
1485252425.24,1928,10.5,73370.0,4.17,-37.81,-38.43,0,*4C
1485252426.48,1929,10.5,73370.0,4.13,-38.29,-38.85,0,*4E
1485252427.76,1930,10.5,73368.3,4.13,-37.93,-38.29,0,*4E
1485252429.02,1931,10.5,73368.0,4.17,-37.81,-38.35,0,*45
1485252430.26,1932,10.5,73370.8,4.17,-38.17,-38.67,0,*41
1485252431.48,1933,10.5,73372.5,4.17,-38.05,-38.61,0,*45
1485252432.74,1934,10.5,73370.3,4.19,-37.81,-38.23,0,*49
1485252433.94,1935,10.5,73370.8,4.19,-37.87,-38.35,0,*49
1485252435.15,1936,10.5,73370.5,4.19,-38.67,-38.97,0,*43
1485252436.34,1937,10.5,73364.5,4.19,-38.35,-38.85,0,*46
1485252437.59,1938,10.5,73368.3,4.21,-38.11,-38.55,0,*49
1485252438.83,1939,10.5,73368.0,4.21,-38.73,-39.15,0,*49
1485252440.07,1940,10.5,73368.0,4.21,-38.79,-39.35,0,*4F
1485252441.31,1941,10.5,73370.0,4.21,-38.35,-38.79,0,*4F
1485252442.55,1942,10.5,73368.0,4.21,-38.79,-39.35,0,*4D
1485252443.79,1943,10.5,73368.5,4.21,-38.61,-39.15,0,*47
1485252445.03,1944,10.5,73370.8,4.21,-38.91,-39.47,0,*48
1485252446.24,1945,10.5,73368.3,4.19,-38.79,-39.35,0,*41
1485252447.48,1946,10.5,73370.0,4.21,-38.73,-39.15,0,*41
1485252448.7,1947,10.5,73368.5,4.19,-38.61,-39.03,0,*4F
1485252449.94,1948,10.5,73368.5,4.21,-38.73,-39.15,0,*4F
1485252451.16,1949,10.5,73368.3,4.21,-38.55,-38.97,0,*41
1485252452.43,1950,10.5,73368.5,4.21,-38.29,-38.91,0,*44
1485252453.62,1951,10.5,73370.8,4.23,-37.75,-38.17,0,*4F
1485252454.81,1952,10.5,73370.5,4.23,-37.75,-38.17,0,*4C
1485252456.05,1953,10.5,73368.0,4.25,-38.05,-38.67,0,*44
1485252457.27,1954,10.5,73366.5,4.23,-37.99,-38.43,0,*49
1485252458.51,1955,10.5,73370.0,4.23,-38.29,-38.79,0,*45
1485252459.76,1956,10.5,73368.5,4.25,-37.93,-38.35,0,*46
1485252461.0,1957,10.5,73366.8,4.25,-38.11,-38.55,0,*44
1485252462.24,1958,10.5,73368.5,4.25,-38.23,-38.85,0,*47
1485252463.48,1959,10.5,73368.3,4.25,-38.67,-39.09,0,*43
1485252464.69,1960,10.5,73370.0,4.27,-38.35,-38.67,0,*45
1485252465.91,1961,10.5,73368.5,4.27,-37.87,-38.49,0,*4E
1485252467.1,1962,10.5,73368.8,4.29,-38.35,-38.73,0,*4C
1485252468.31,1963,10.5,73370.8,4.27,-38.17,-38.79,0,*49
1485252469.53,1964,10.5,73370.5,4.27,-38.67,-39.09,0,*4F
1485252470.76,1965,10.5,73370.5,4.29,-37.87,-38.29,0,*42
1485252471.98,1966,10.5,73370.3,4.31,-38.17,-38.61,0,*42
1485252473.21,1967,10.5,73370.0,4.31,-37.75,-38.17,0,*49
1485252474.43,1968,10.5,73368.3,4.31,-37.75,-38.17,0,*46
1485252475.68,1969,10.5,73368.0,4.31,-37.45,-37.81,0,*44
1485252476.93,1970,10.5,73370.0,4.33,-37.39,-37.81,0,*45
1485252478.15,1971,10.5,73370.8,4.33,-37.57,-37.93,0,*4F
1485252479.37,1972,10.5,73370.0,4.33,-37.57,-37.93,0,*4C
1485252480.59,1973,10.5,73370.5,4.35,-38.05,-38.35,0,*40
1485252481.81,1974,10.5,73368.8,4.35,-37.87,-38.17,0,*42
1485252483.05,1975,10.5,73368.8,4.39,-37.69,-38.17,0,*4F
1485252484.29,1976,10.5,73370.5,4.39,-37.57,-38.11,0,*47
1485252485.5,1977,10.5,73364.0,4.39,-37.75,-38.17,0,*40
1485252486.75,1978,10.5,73368.0,4.41,-37.69,-38.23,0,*4A
1485252487.98,1979,10.5,73370.3,4.41,-37.87,-38.23,0,*4B
1485252489.22,1980,10.5,73366.8,4.43,-37.57,-37.99,0,*4C
1485252490.44,1981,10.5,73368.5,4.43,-38.05,-38.43,0,*4D
1485252491.66,1982,10.5,73370.3,4.45,-37.93,-38.17,0,*49
1485252492.88,1983,10.5,73368.3,4.45,-37.57,-37.93,0,*43
1485252494.07,1984,10.5,73370.5,4.45,-37.45,-37.75,0,*4F
1485252495.27,1985,10.5,73370.8,4.45,-37.27,-37.75,0,*4A
1485252496.54,1986,10.5,73366.5,4.47,-37.21,-37.93,0,*45
1485252497.81,1987,10.5,73368.3,4.47,-37.69,-38.11,0,*4D
1485252499.08,1988,10.5,73366.8,4.47,-37.69,-38.11,0,*42
1485252500.31,1989,10.5,73370.8,4.49,-37.87,-38.29,0,*46
1485252501.59,1990,10.5,73368.3,4.51,-37.81,-38.23,0,*4B
1485252502.83,1991,10.5,73366.8,4.51,-37.63,-38.05,0,*42
1485252504.07,1992,10.5,73370.5,4.51,-37.45,-37.81,0,*46
1485252505.31,1993,10.5,73368.5,4.51,-37.63,-38.05,0,*40
1485252506.53,1994,10.5,73368.5,4.53,-37.33,-37.93,0,*40
1485252507.77,1995,10.5,73370.0,4.55,-37.63,-38.05,0,*42
1485252509.02,1996,10.5,73368.8,4.57,-37.51,-37.81,0,*41
1485252510.23,1997,10.5,73370.0,4.55,-37.45,-38.05,0,*44
1485252511.42,1998,10.5,73370.0,4.57,-37.33,-37.75,0,*40
1485252512.65,1999,10.5,73366.5,4.57,-37.81,-38.17,0,*43
1485252513.9,2000,10.5,73368.5,4.57,-37.99,-38.29,0,*4D
1485252515.14,2001,10.5,73370.8,4.57,-37.39,-37.93,0,*48
1485252516.38,2002,10.5,73370.5,4.57,-37.39,-37.81,0,*48
1485252517.61,2003,10.5,73368.3,4.61,-37.21,-37.75,0,*4E
1485252518.86,2004,10.5,73370.0,4.61,-37.51,-38.11,0,*43